User: anonymous   Login
Location: Theydon Bois
(51.6750°N, 0.1050°E)
Time: 18:17:58
(UTC+01:00)
Language:

SPOT 5 - Orbit

View from above orbital plane
View from above orbital plane
View from above satellite
View from above satellite

Ground track
Ground track

The orbit data is extracted from the following two-line orbital elements,

1 27421U 02021A   18176.11562554  .00000034  00000-0  19339-4 0  9999
2 27421  98.3568 243.7694 0134338 266.2173  92.3656 14.51935918839783
Epoch (UTC): 25 June 2018 02:46:30
Eccentricity: 0.0134338
inclination: 98.3568°
perigee height: 624 km
apogee height: 814 km
right ascension of ascending node: 243.7694°
argument of perigee: 266.2173°
revolutions per day: 14.51935918
mean anomaly at epoch: 92.3656°
orbit number at epoch: 83978

The dashed part of the orbit path shows where the satellite is in the earth's shadow,  

DLR